Epoch,demod_status_bits,ebno,lock_status,signal_level,viterbi_ber
1665566561,C;S;V;F,10.4,0x00c000,-41.1,8.33e-5
1665566562,C;S;V;F,10.4,0x00c000,-40.8,1.41e-4
1665566563,C;S;V;F,9.9,0x00c000,-40.7,1.40e-4
1665566564,C;S;V;F,9.8,0x00c000,-41.1,1.56e-4
1665566565,C;S;V;F,9.9,0x00c000,-40.4,1.63e-4
1665566566,C;S;V;F,10.5,0x00c000,-39.9,8.89e-5
1665566567,C;S;V;F,11.6,0x00c000,-39.6,3.07e-5
1665566568,C;S;V;F,10.4,0x00c000,-40.2,
1665566569,,9.0,0x00c000,-41.2,1.70e-5
1665566570,C;S;V;F,10.4,0x00c000,-40.6,3.83e-4
1665566571,C;S;V;F,10.7,0x00c000,-40.5,4.35e-4
1665566572,C;S;V;F,,0x00c000,-39.9,6.21e-5
1665566573,C;S;V;F,11.3,0x00c000,-40.3,4.16e-5
1665566574,C;S;V;F,10.8,0x00c000,-40.5,2.72e-5
1665566575,C;S;V;F,10.8,0x00c000,,3.67e-5
1665566576,C;S;V;F,11.5,0x00c000,-40.0,4.58e-5
1665566577,C;S;V;F,11.2,0x00c000,-39.2,2.09e-5
1665566578,C;S;V;F,11.1,0x00c000,-40.9,6.94e-5
1665566579,C;S;V;F,10.7,0x00c000,-39.9,8.46e-5
1665566580,C;S;V;F,11.2,0x00c000,-40.0,3.52e-5
1665566581,C;S;V;F,11.3,0x00c000,-40.0,2.10e-5
1665566582,C;S;V;F,10.7,0x00c000,-40.3,4.21e-5
1665566583,C;S;V;F,11.1,0x00c000,-40.0,3.54e-5
1665566584,C;S;V;F,11.4,0x00c000,-40.1,2.52e-5
1665566585,C;S;V;F,11.8,0x00c000,-39.2,
1665566586,,10.7,0x00c000,-40.3,1.98e-5
1665566587,C;S;V;F,11.4,0x00c000,-40.1,2.06e-5
1665566588,C;S;V;F,11.0,0x00c000,-39.9,2.54e-5
1665566589,C;S;V;F,,0x00c000,-39.2,2.06e-5
1665566590,C;S;V;F,12.0,0x00c000,,1.25e-5
1665566591,C;S;V;F,12.1,0x00c000,-39.2,3.47e-6
1665566592,C;S;V;F,11.7,0x00c000,-39.8,5.59e-6
1665566593,C;S;V;F,12.0,0x00c000,-39.3,1.06e-5
1665566594,C;S;V;F,12.2,0x00c000,-39.2,7.26e-6
1665566595,C;S;V;F,11.6,0x00c000,-39.3,3.78e-6
1665566596,C;S;V;F,12.4,0x00c000,-39.2,4.08e-6
1665566597,C;S;V;F,12.3,0x00c000,-39.0,1.96e-6
1665566598,C;S;V;F,12.7,0x00c000,-38.7,7.57e-7
1665566599,C;S;V;F,12.2,0x00c000,-39.2,1.51e-6
1665566600,C;S;V;F,12.0,0x00c000,-39.4,2.87e-6
1665566601,,12.3,0x00c000,-39.1,
1665566602,C;S;V;F,12.7,0x00c000,-39.0,3.17e-6
1665566603,C;S;V;F,12.6,0x00c000,-39.2,1.36e-6
1665566604,C;S;V;F,12.3,0x00c000,-39.5,1.81e-6
1665566605,C;S;V;F,,0x00c000,,4.53e-6
1665566607,,12.3,0x00c000,-39.2,
1665566608,C;S;V;F,12.8,0x00c000,-38.7,7.57e-7
1665566609,C;S;V;F,,0x00c000,-38.8,6.06e-7
1665566610,C;S;V;F,12.9,0x00c000,-38.7,4.54e-7
1665566611,C;S;V;F,12.6,0x00c000,-39.1,9.09e-7
1665566612,C;S;V;F,12.5,0x00c000,,9.09e-7
1665566613,C;S;V;F,12.5,0x00c000,-38.8,1.05e-6
1665566614,C;S;V;F,12.4,0x00c000,-38.5,1.36e-6
1665566615,C;S;V;F,13.3,0x00c000,-38.2,1.05e-6
1665566616,C;S;V;F,13.0,0x00c000,-38.8,4.54e-7
1665566617,C;S;V;F,12.9,0x00c000,-38.5,4.54e-7
1665566618,C;S;V;F,13.0,0x00c000,-38.3,3.03e-7
1665566619,C;S;V;F,12.7,0x00c000,-38.7,4.54e-7
1665566620,C;S;V;F,12.6,0x00c000,-38.7,
1665566621,C;S;V;F,12.4,0x00c000,-38.8,7.57e-7
1665566622,,12.4,0x00c000,-38.9,1.05e-6
1665566623,C;S;V;F,12.3,0x00c000,-38.8,9.09e-7
1665566624,C;S;V;F,12.5,0x00c000,-38.9,1.81e-6
1665566625,C;S;V;F,,0x00c000,-38.5,1.05e-6
1665566626,C;S;V;F,13.0,0x00c000,,7.57e-7
1665566627,C;S;V;F,13.0,0x00c000,-38.7,0.00e-0
1665566628,C;S;V;F,12.8,0x00c000,-38.6,1.51e-7
1665566629,C;S;V;F,12.6,0x00c000,-38.9,6.06e-7
1665566630,C;S;V;F,12.7,0x00c000,-38.4,1.81e-6
1665566631,C;S;V;F,13.4,0x00c000,-38.3,3.03e-7
1665566632,C;S;V;F,13.0,0x00c000,-38.6,1.51e-7
1665566633,C;S;V;F,13.2,0x00c000,-38.0,3.03e-7
1665566634,C;S;V;F,14.0,0x00c000,-37.9,0.00e-0
1665566635,C;S;V;F,13.4,0x00c000,-38.6,1.51e-7
1665566636,,13.2,0x00c000,-38.1,
1665566637,C;S;V;F,13.2,0x00c000,-38.6,3.03e-7
1665566638,C;S;V;F,13.1,0x00c000,-38.6,1.51e-7
1665566639,C;S;V;F,,0x00c000,-38.5,3.03e-7
1665566640,C;S;V;F,13.2,0x00c000,-38.2,3.03e-7
1665566641,C;S;V;F,13.5,0x00c000,,3.03e-7
1665566642,C;S;V;F,13.7,0x00c000,-37.9,3.03e-7
1665566643,C;S;V;F,14.1,0x00c000,-37.6,1.51e-7
1665566644,C;S;V;F,14.1,0x00c000,-37.6,0.00e-0
1665566645,C;S;V;F,13.6,0x00c000,-38.2,0.00e-0
1665566646,C;S;V;F,13.7,0x00c000,-38.1,0.00e-0
1665566647,C;S;V;F,14.0,0x00c000,-38.3,0.00e-0
1665566648,C;S;V;F,13.2,0x00c000,-38.0,
1665566649,,13.7,0x00c000,-38.0,0.00e-0
1665566650,C;S;V;F,13.5,0x00c000,-38.2,0.00e-0
1665566651,C;S;V;F,13.8,0x00c000,-38.0,0.00e-0
1665566652,C;S;V;F,,0x00c000,-38.5,0.00e-0
1665566653,C;S;V;F,13.5,0x00c000,-38.3,0.00e-0
1665566654,C;S;V;F,13.5,0x00c000,,0.00e-0
1665566655,C;S;V;F,13.5,0x00c000,-38.5,0.00e-0
1665566656,C;S;V;F,13.5,0x00c000,-38.4,0.00e-0
1665566657,C;S;V;F,13.2,0x00c000,-38.3,0.00e-0
1665566658,C;S;V;F,12.9,0x00c000,-39.1,3.03e-7
1665566659,C;S;V;F,13.9,0x00c000,-38.3,6.06e-7
1665566660,C;S;V;F,13.5,0x00c000,-38.6,0.00e-0
1665566661,C;S;V;F,13.5,0x00c000,-38.3,0.00e-0
1665566662,C;S;V;F,13.3,0x00c000,-38.4,1.51e-7
1665566663,C;S;V;F,13.8,0x00c000,-38.0,
1665566664,,13.3,0x00c000,-38.1,1.51e-7
1665566665,C;S;V;F,13.9,0x00c000,-37.8,0.00e-0
1665566666,C;S;V;F,,0x00c000,-37.9,0.00e-0
1665566667,C;S;V;F,13.9,0x00c000,-37.3,0.00e-0
1665566668,C;S;V;F,14.4,0x00c000,,0.00e-0
1665566670,C;S;V;F,13.4,0x00c000,-38.3,0.00e-0
1665566671,,13.7,0x00c000,-38.1,
1665566672,C;S;V;F,,0x00c000,-38.4,0.00e-0
1665566673,C;S;V;F,13.5,0x00c000,-37.5,0.00e-0
1665566674,C;S;V;F,14.1,0x00c000,,0.00e-0
1665566675,C;S;V;F,13.8,0x00c000,-38.2,0.00e-0
1665566676,C;S;V;F,14.1,0x00c000,-38.0,0.00e-0
1665566677,C;S;V;F,14.0,0x00c000,-37.9,0.00e-0
1665566678,C;S;V;F,14.5,0x00c000,-37.5,0.00e-0
1665566679,C;S;V;F,14.3,0x00c000,-37.5,0.00e-0
1665566680,C;S;V;F,14.2,0x00c000,-37.9,0.00e-0
1665566681,C;S;V;F,14.1,0x00c000,-37.9,0.00e-0
1665566682,C;S;V;F,14.5,0x00c000,-37.5,
1665566683,,14.6,0x00c000,-37.6,0.00e-0
1665566684,C;S;V;F,14.4,0x00c000,-37.6,0.00e-0
1665566685,C;S;V;F,14.6,0x00c000,-37.3,0.00e-0
1665566686,C;S;V;F,,0x00c000,-37.2,0.00e-0
1665566687,C;S;V;F,15.1,0x00c000,,0.00e-0
1665566688,C;S;V;F,14.8,0x00c000,-37.1,0.00e-0
1665566689,C;S;V;F,15.1,0x00c000,-36.7,0.00e-0
1665566690,C;S;V;F,15.1,0x00c000,-36.8,0.00e-0
1665566691,C;S;V;F,15.2,0x00c000,-36.6,0.00e-0
1665566692,C;S;V;F,15.5,0x00c000,-36.2,0.00e-0
1665566693,C;S;V;F,15.6,0x00c000,-36.5,0.00e-0
1665566694,C;S;V;F,15.5,0x00c000,-36.0,0.00e-0
1665566695,C;S;V;F,15.9,0x00c000,-35.9,0.00e-0
1665566696,C;S;V;F,16.0,0x00c000,-35.7,0.00e-0
1665566697,,15.8,0x00c000,-36.0,
1665566698,C;S;V;F,15.7,0x00c000,-36.2,0.00e-0
1665566699,C;S;V;F,15.7,0x00c000,-36.1,0.00e-0
1665566700,C;S;V;F,,0x00c000,-36.5,0.00e-0
1665566701,C;S;V;F,15.6,0x00c000,,0.00e-0
1665566702,C;S;V;F,15.7,0x00c000,-36.1,0.00e-0
1665566703,C;S;V;F,16.0,0x00c000,-36.1,0.00e-0
1665566704,C;S;V;F,16.0,0x00c000,-35.8,0.00e-0
1665566705,C;S;V;F,15.5,0x00c000,-36.1,0.00e-0
1665566706,C;S;V;F,16.0,0x00c000,-35.7,0.00e-0
1665566707,C;S;V;F,15.8,0x00c000,-36.2,0.00e-0
1665566708,C;S;V;F,16.1,0x00c000,-35.6,0.00e-0
1665566709,C;S;V;F,15.7,0x00c000,-36.0,0.00e-0
1665566710,C;S;V;F,16.0,0x00c000,-35.6,
1665566711,,16.2,0x00c000,-35.5,0.00e-0
1665566712,C;S;V;F,16.4,0x00c000,-35.5,0.00e-0
1665566713,C;S;V;F,16.2,0x00c000,-35.6,0.00e-0
1665566714,C;S;V;F,,0x00c000,-35.7,0.00e-0
1665566715,C;S;V;F,16.2,0x00c000,,0.00e-0
1665566716,C;S;V;F,16.2,0x00c000,-35.0,0.00e-0
1665566717,C;S;V;F,16.5,0x00c000,-35.4,0.00e-0
1665566718,C;S;V;F,16.2,0x00c000,-35.5,0.00e-0
1665566719,C;S;V;F,16.1,0x00c000,-35.5,0.00e-0
1665566720,C;S;V;F,16.2,0x00c000,-35.8,0.00e-0
1665566721,C;S;V;F,16.1,0x00c000,-35.5,0.00e-0
1665566722,,16.6,0x00c000,-35.2,
1665566723,C;S;V;F,16.8,0x00c000,-34.7,0.00e-0
1665566724,C;S;V;F,,0x00c000,-35.5,0.00e-0
1665566725,C;S;V;F,16.3,0x00c000,,0.00e-0
1665566726,C;S;V;F,16.6,0x00c000,-34.9,0.00e-0
1665566727,C;S;V;F,16.3,0x00c000,-35.7,0.00e-0
1665566728,C;S;V;F,16.5,0x00c000,-35.4,0.00e-0
1665566729,,16.2,0x00c000,-35.5,
1665566730,C;S;V;F,16.3,0x00c000,-35.5,0.00e-0
1665566731,C;S;V;F,,0x00c000,,0.00e-0
1665566733,C;S;V;F,16.2,0x00c000,-35.7,0.00e-0
1665566734,C;S;V;F,16.3,0x00c000,-35.5,0.00e-0
1665566735,C;S;V;F,16.5,0x00c000,-35.1,0.00e-0
1665566736,C;S;V;F,15.9,0x00c000,-35.8,0.00e-0
1665566737,C;S;V;F,16.2,0x00c000,-35.6,0.00e-0
1665566738,C;S;V;F,16.2,0x00c000,-35.6,
1665566739,,16.2,0x00c000,-35.8,0.00e-0
1665566740,C;S;V;F,15.9,0x00c000,-36.0,0.00e-0
1665566741,C;S;V;F,16.2,0x00c000,-35.8,0.00e-0
1665566742,C;S;V;F,,0x00c000,-35.5,0.00e-0
1665566743,C;S;V;F,16.2,0x00c000,,0.00e-0
1665566744,C;S;V;F,16.0,0x00c000,-35.8,0.00e-0
1665566745,C;S;V;F,16.0,0x00c000,-35.6,0.00e-0
1665566746,C;S;V;F,16.3,0x00c000,-35.5,0.00e-0
1665566747,C;S;V;F,16.1,0x00c000,-35.4,0.00e-0
1665566748,C;S;V;F,16.3,0x00c000,-35.3,0.00e-0
1665566749,C;S;V;F,16.5,0x00c000,-35.5,0.00e-0
1665566750,C;S;V;F,16.4,0x00c000,-35.5,0.00e-0
1665566751,C;S;V;F,16.3,0x00c000,-35.6,0.00e-0
1665566752,C;S;V;F,16.3,0x00c000,-35.6,
1665566753,,16.3,0x00c000,-35.4,0.00e-0
1665566754,C;S;V;F,16.5,0x00c000,-35.3,0.00e-0
1665566755,C;S;V;F,16.4,0x00c000,-35.2,0.00e-0
1665566756,C;S;V;F,,0x00c000,-35.2,0.00e-0
1665566757,C;S;V;F,16.6,0x00c000,,0.00e-0
1665566758,C;S;V;F,16.5,0x00c000,-34.9,0.00e-0
1665566759,C;S;V;F,16.9,0x00c000,-35.0,0.00e-0
1665566760,C;S;V;F,16.6,0x00c000,-35.2,0.00e-0
1665566761,C;S;V;F,16.6,0x00c000,-35.2,0.00e-0
1665566762,C;S;V;F,16.6,0x00c000,-35.1,0.00e-0
1665566763,C;S;V;F,16.6,0x00c000,-35.1,0.00e-0
1665566764,C;S;V;F,16.7,0x00c000,-35.0,0.00e-0
1665566765,C;S;V;F,16.7,0x00c000,-35.0,
1665566766,,16.7,0x00c000,-34.9,0.00e-0
1665566767,C;S;V;F,16.9,0x00c000,-34.8,0.00e-0
1665566768,C;S;V;F,,0x00c000,-35.0,0.00e-0
1665566769,C;S;V;F,16.8,0x00c000,-35.0,0.00e-0
1665566770,C;S;V;F,16.8,0x00c000,-34.9,0.00e-0
1665566771,C;S;V;F,16.8,0x00c000,,0.00e-0
1665566772,C;S;V;F,16.8,0x00c000,-34.8,0.00e-0
1665566773,C;S;V;F,17.0,0x00c000,-34.7,0.00e-0
1665566774,C;S;V;F,17.0,0x00c000,-34.7,0.00e-0
1665566775,C;S;V;F,16.9,0x00c000,-34.9,0.00e-0
1665566776,C;S;V;F,17.1,0x00c000,-34.9,0.00e-0
1665566777,C;S;V;F,16.9,0x00c000,-35.2,0.00e-0
1665566778,C;S;V;F,16.5,0x00c000,-35.5,0.00e-0
1665566779,C;S;V;F,16.4,0x00c000,-35.3,
1665566780,,16.5,0x00c000,-35.5,0.00e-0
1665566781,C;S;V;F,16.4,0x00c000,-35.2,0.00e-0
1665566782,C;S;V;F,16.7,0x00c000,-35.2,0.00e-0
1665566783,C;S;V;F,,0x00c000,-34.9,0.00e-0
1665566784,C;S;V;F,16.7,0x00c000,-35.2,0.00e-0
1665566785,C;S;V;F,16.5,0x00c000,,0.00e-0
1665566786,C;S;V;F,16.7,0x00c000,-35.1,0.00e-0
1665566787,C;S;V;F,16.7,0x00c000,-35.2,0.00e-0
1665566788,C;S;V;F,16.6,0x00c000,-35.0,0.00e-0
1665566789,C;S;V;F,16.7,0x00c000,-35.4,0.00e-0
1665566790,C;S;V;F,16.6,0x00c000,-35.2,0.00e-0
1665566791,C;S;V;F,16.6,0x00c000,-35.5,0.00e-0
1665566792,C;S;V;F,16.6,0x00c000,-35.2,0.00e-0
1665566793,C;S;V;F,16.3,0x00c000,-35.2,
1665566794,,,,,0.00e-0
1665566795,,,0x00c000,-35.6,
1665566796,C;S;V;F,16.2,0x00c000,,0.00e-0
1665566797,C;S;V;F,16.5,0x00c000,-35.5,0.00e-0
1665566798,C;S;V;F,16.3,0x00c000,-35.9,0.00e-0
1665566799,C;S;V;F,16.2,0x00c000,-35.8,0.00e-0
1665566800,C;S;V;F,16.1,0x00c000,-36.1,0.00e-0
1665566801,C;S;V;F,16.0,0x00c000,-36.3,
1665566802,,15.6,0x00c000,-36.3,0.00e-0
1665566803,C;S;V;F,15.6,0x00c000,-36.4,0.00e-0
1665566804,C;S;V;F,15.6,0x00c000,-36.4,0.00e-0
1665566805,C;S;V;F,,0x00c000,-36.0,0.00e-0
1665566806,C;S;V;F,15.7,0x00c000,-35.8,0.00e-0
1665566807,C;S;V;F,16.0,0x00c000,,0.00e-0
1665566808,C;S;V;F,15.9,0x00c000,-36.0,0.00e-0
1665566809,C;S;V;F,16.2,0x00c000,-35.7,0.00e-0
1665566810,C;S;V;F,16.3,0x00c000,-35.6,0.00e-0
1665566811,C;S;V;F,16.3,0x00c000,-35.8,0.00e-0
1665566812,C;S;V;F,16.3,0x00c000,-35.4,0.00e-0
1665566813,C;S;V;F,16.6,0x00c000,-35.4,0.00e-0
1665566814,C;S;V;F,16.6,0x00c000,-35.4,0.00e-0
1665566815,C;S;V;F,16.3,0x00c000,-35.6,0.00e-0
1665566816,C;S;V;F,16.3,0x00c000,-35.4,0.00e-0
1665566817,C;S;V;F,16.2,0x00c000,-35.5,
1665566818,,16.1,0x00c000,-35.8,0.00e-0
1665566819,C;S;V;F,15.7,0x00c000,-36.0,0.00e-0
1665566820,C;S;V;F,16.0,0x00c000,-35.8,0.00e-0
1665566821,C;S;V;F,,0x00c000,-35.6,0.00e-0
1665566822,C;S;V;F,16.4,0x00c000,,0.00e-0
1665566823,C;S;V;F,16.1,0x00c000,-36.1,0.00e-0
1665566824,C;S;V;F,16.0,0x00c000,-35.8,0.00e-0
1665566825,C;S;V;F,16.4,0x00c000,-35.5,0.00e-0
1665566826,C;S;V;F,16.4,0x00c000,-36.0,0.00e-0
1665566827,C;S;V;F,16.0,0x00c000,-35.6,0.00e-0
1665566828,C;S;V;F,16.2,0x00c000,-35.9,0.00e-0
1665566829,C;S;V;F,15.8,0x00c000,-35.9,
1665566830,,15.8,0x00c000,-36.0,0.00e-0
1665566831,C;S;V;F,15.9,0x00c000,-36.0,0.00e-0
1665566832,C;S;V;F,,,,0.00e-0
1665566835,C;S;V;F,16.1,0x00c000,-35.7,0.00e-0
1665566836,C;S;V;F,15.7,0x00c000,-36.3,0.00e-0
1665566837,C;S;V;F,16.1,0x00c000,-35.5,0.00e-0
1665566838,C;S;V;F,15.9,0x00c000,-35.9,
1665566839,,16.0,0x00c000,-35.5,0.00e-0
1665566840,C;S;V;F,16.1,0x00c000,-35.7,0.00e-0
1665566841,C;S;V;F,15.6,0x00c000,-35.7,0.00e-0
1665566842,C;S;V;F,,0x00c000,-35.7,0.00e-0
1665566843,C;S;V;F,15.9,0x00c000,-35.4,0.00e-0
1665566844,C;S;V;F,15.9,0x00c000,,0.00e-0
1665566845,C;S;V;F,16.2,0x00c000,-35.5,0.00e-0
1665566846,C;S;V;F,16.2,0x00c000,-35.7,0.00e-0
1665566847,C;S;V;F,15.9,0x00c000,-35.9,0.00e-0
1665566848,C;S;V;F,16.5,0x00c000,-35.5,0.00e-0
1665566849,C;S;V;F,15.9,0x00c000,-36.0,0.00e-0
1665566850,C;S;V;F,16.4,0x00c000,-35.6,0.00e-0
1665566851,C;S;V;F,16.1,0x00c000,-35.8,
1665566852,,16.2,0x00c000,-36.0,0.00e-0
1665566853,C;S;V;F,16.3,0x00c000,-35.8,0.00e-0
1665566854,C;S;V;F,16.1,0x00c000,-35.9,0.00e-0
1665566855,C;S;V;F,,0x00c000,-35.8,0.00e-0
1665566856,C;S;V;F,16.2,0x00c000,,0.00e-0
1665566858,,16.4,0x00c000,-35.7,
1665566859,C;S;V;F,16.3,0x00c000,-35.8,0.00e-0
1665566860,C;S;V;F,16.1,0x00c000,-35.7,0.00e-0
1665566861,C;S;V;F,,0x00c000,-35.6,0.00e-0
1665566862,C;S;V;F,16.2,0x00c000,,0.00e-0
1665566863,C;S;V;F,16.3,0x00c000,-35.7,0.00e-0
1665566864,C;S;V;F,16.2,0x00c000,-35.9,0.00e-0
1665566865,C;S;V;F,16.0,0x00c000,-35.9,0.00e-0
1665566866,C;S;V;F,16.4,0x00c000,-35.6,0.00e-0
1665566867,C;S;V;F,16.0,0x00c000,-36.1,0.00e-0
1665566868,C;S;V;F,15.9,0x00c000,-35.9,0.00e-0
1665566869,C;S;V;F,16.2,0x00c000,-36.0,
1665566870,,16.2,0x00c000,-36.1,0.00e-0
1665566871,C;S;V;F,16.0,0x00c000,-36.0,0.00e-0
1665566872,C;S;V;F,16.0,0x00c000,-36.1,0.00e-0
1665566873,C;S;V;F,,0x00c000,-35.9,0.00e-0
1665566874,C;S;V;F,16.2,0x00c000,-35.8,0.00e-0
1665566875,C;S;V;F,16.2,0x00c000,,0.00e-0
1665566876,C;S;V;F,16.4,0x00c000,-35.5,0.00e-0
1665566877,C;S;V;F,16.5,0x00c000,-35.3,0.00e-0
1665566878,C;S;V;F,16.6,0x00c000,-35.3,0.00e-0
1665566879,C;S;V;F,16.4,0x00c000,-35.5,0.00e-0
1665566880,C;S;V;F,16.5,0x00c000,-35.5,0.00e-0
1665566881,C;S;V;F,16.3,0x00c000,-35.7,0.00e-0
1665566882,C;S;V;F,16.3,0x00c000,-35.9,
1665566883,,16.4,0x00c000,-35.7,0.00e-0
1665566884,C;S;V;F,16.4,0x00c000,-35.5,0.00e-0
1665566885,C;S;V;F,,0x00c000,-35.6,0.00e-0
1665566886,C;S;V;F,16.4,0x00c000,,0.00e-0
1665566887,C;S;V;F,16.5,0x00c000,-35.3,0.00e-0
1665566888,C;S;V;F,16.4,0x00c000,-35.5,0.00e-0
1665566889,C;S;V;F,16.4,0x00c000,-35.3,0.00e-0
1665566890,C;S;V;F,16.5,0x00c000,-35.6,0.00e-0
1665566891,C;S;V;F,16.5,0x00c000,-35.3,0.00e-0
1665566892,C;S;V;F,16.6,0x00c000,-35.3,0.00e-0
1665566893,C;S;V;F,16.4,0x00c000,-35.6,0.00e-0
1665566894,C;S;V;F,16.3,0x00c000,-35.5,0.00e-0
1665566895,C;S;V;F,16.6,0x00c000,-35.3,
1665566896,,16.7,0x00c000,-35.1,0.00e-0
1665566897,C;S;V;F,16.7,0x00c000,-35.4,0.00e-0
1665566898,C;S;V;F,,0x00c000,-34.8,0.00e-0
1665566899,C;S;V;F,16.8,0x00c000,-35.1,0.00e-0
1665566900,C;S;V;F,17.0,0x00c000,,0.00e-0
1665566901,C;S;V;F,16.7,0x00c000,-35.2,0.00e-0
1665566902,C;S;V;F,16.7,0x00c000,-35.3,0.00e-0
1665566903,C;S;V;F,16.4,0x00c000,-35.4,0.00e-0
1665566904,C;S;V;F,16.5,0x00c000,-35.5,0.00e-0
1665566905,C;S;V;F,16.3,0x00c000,-35.4,0.00e-0
1665566906,C;S;V;F,16.5,0x00c000,-35.5,0.00e-0
1665566907,C;S;V;F,16.4,0x00c000,-35.8,0.00e-0
1665566908,C;S;V;F,16.4,0x00c000,-35.4,
1665566909,,16.4,0x00c000,-35.7,0.00e-0
1665566910,C;S;V;F,16.2,0x00c000,-35.7,0.00e-0
1665566911,C;S;V;F,16.1,0x00c000,-36.0,0.00e-0
1665566912,C;S;V;F,,0x00c000,-35.7,0.00e-0
1665566913,C;S;V;F,16.3,0x00c000,-35.4,0.00e-0
1665566914,C;S;V;F,16.2,0x00c000,,0.00e-0
1665566915,C;S;V;F,16.1,0x00c000,-35.6,0.00e-0
1665566916,C;S;V;F,15.9,0x00c000,-36.1,0.00e-0
1665566917,C;S;V;F,16.0,0x00c000,-35.8,0.00e-0
1665566918,C;S;V;F,16.1,0x00c000,-35.8,0.00e-0
1665566920,C;S;V;F,16.0,0x00c000,-36.0,0.00e-0
1665566921,C;S;V;F,15.8,0x00c000,-36.1,0.00e-0
1665566922,,15.9,0x00c000,-36.1,
1665566923,C;S;V;F,15.8,0x00c000,-35.9,0.00e-0
1665566924,C;S;V;F,,0x00c000,-36.3,0.00e-0
1665566925,C;S;V;F,15.6,0x00c000,-36.1,0.00e-0
1665566926,C;S;V;F,15.8,0x00c000,,0.00e-0
1665566927,C;S;V;F,15.8,0x00c000,-36.3,0.00e-0
1665566928,C;S;V;F,15.8,0x00c000,-36.3,0.00e-0
1665566929,C;S;V;F,15.8,0x00c000,-35.9,0.00e-0
1665566930,C;S;V;F,16.1,0x00c000,-35.8,0.00e-0
1665566931,C;S;V;F,15.8,0x00c000,-36.3,0.00e-0
1665566932,C;S;V;F,16.2,0x00c000,-36.0,0.00e-0
1665566933,C;S;V;F,15.8,0x00c000,-35.9,0.00e-0
1665566934,C;S;V;F,15.8,0x00c000,-36.0,0.00e-0
1665566935,,16.1,0x00c000,-35.9,
1665566936,C;S;V;F,16.1,0x00c000,-35.6,0.00e-0
1665566937,C;S;V;F,16.2,0x00c000,-35.7,0.00e-0
1665566938,C;S;V;F,16.1,0x00c000,-35.8,0.00e-0
1665566939,C;S;V;F,,0x00c000,-35.8,0.00e-0
1665566940,C;S;V;F,16.0,0x00c000,-35.9,0.00e-0
1665566941,C;S;V;F,16.0,0x00c000,,0.00e-0
1665566942,C;S;V;F,16.0,0x00c000,-35.7,0.00e-0
1665566943,C;S;V;F,16.0,0x00c000,-35.9,0.00e-0
1665566944,C;S;V;F,16.3,0x00c000,-35.9,0.00e-0
1665566945,C;S;V;F,15.9,0x00c000,-36.1,0.00e-0
1665566946,C;S;V;F,16.0,0x00c000,-36.0,0.00e-0
1665566947,C;S;V;F,16.1,0x00c000,-35.9,0.00e-0
1665566948,,16.1,0x00c000,-35.6,
1665566949,C;S;V;F,16.2,0x00c000,-35.5,0.00e-0
1665566950,C;S;V;F,,0x00c000,-35.3,0.00e-0
1665566951,C;S;V;F,16.4,0x00c000,,0.00e-0
1665566952,C;S;V;F,16.5,0x00c000,-35.4,0.00e-0
1665566953,C;S;V;F,16.7,0x00c000,-35.2,0.00e-0
1665566954,C;S;V;F,16.5,0x00c000,-35.3,0.00e-0
1665566955,C;S;V;F,16.0,0x00c000,-35.8,0.00e-0
1665566956,C;S;V;F,16.4,0x00c000,-35.3,0.00e-0
1665566957,C;S;V;F,16.2,0x00c000,-35.6,0.00e-0
1665566958,C;S;V;F,16.3,0x00c000,-35.5,0.00e-0
1665566959,C;S;V;F,16.4,0x00c000,-35.5,0.00e-0
1665566960,C;S;V;F,16.2,0x00c000,-35.5,0.00e-0
1665566961,,16.3,0x00c000,-35.3,
1665566962,C;S;V;F,16.6,0x00c000,-35.1,0.00e-0
1665566963,C;S;V;F,16.8,0x00c000,-34.8,0.00e-0
1665566964,C;S;V;F,16.8,0x00c000,-35.3,0.00e-0
1665566965,C;S;V;F,,0x00c000,-35.2,0.00e-0
1665566966,C;S;V;F,16.7,0x00c000,,0.00e-0
1665566967,C;S;V;F,16.5,0x00c000,-35.3,0.00e-0
1665566968,C;S;V;F,16.5,0x00c000,-35.4,0.00e-0
1665566969,C;S;V;F,16.2,0x00c000,-35.6,0.00e-0
1665566970,C;S;V;F,15.8,0x00c000,-35.8,0.00e-0
1665566971,C;S;V;F,16.3,0x00c000,-35.5,0.00e-0
1665566972,C;S;V;F,16.2,0x00c000,-35.4,
1665566973,,16.3,0x00c000,-35.5,0.00e-0
1665566974,C;S;V;F,16.0,0x00c000,-35.8,0.00e-0
1665566975,C;S;V;F,15.5,0x00c000,-36.3,0.00e-0
1665566976,C;S;V;F,,0x00c000,-36.4,0.00e-0
1665566977,C;S;V;F,15.4,0x00c000,,0.00e-0
1665566978,C;S;V;F,15.8,0x00c000,-35.6,0.00e-0
1665566979,C;S;V;F,15.8,0x00c000,-36.3,0.00e-0
1665566980,C;S;V;F,15.3,0x00c000,-36.3,0.00e-0
1665566981,C;S;V;F,15.6,0x00c000,-36.0,0.00e-0
1665566984,C;S;V;F,15.0,0x00c000,-36.7,0.00e-0
1665566985,C;S;V;F,15.7,0x00c000,-36.3,0.00e-0
1665566986,C;S;V;F,14.8,0x00c000,-36.8,0.00e-0
1665566987,C;S;V;F,14.8,0x00c000,-36.7,0.00e-0
1665566988,C;S;V;F,15.3,0x00c000,-36.4,0.00e-0
1665566989,C;S;V;F,14.4,0x00c000,-37.2,0.00e-0
1665566990,C;S;V;F,14.4,0x00c000,-37.3,0.00e-0
1665566991,C;S;V;F,14.6,0x00c000,-37.1,
1665566992,,15.0,0x00c000,-36.9,0.00e-0
1665566993,C;S;V;F,14.8,0x00c000,-37.3,0.00e-0
1665566994,C;S;V;F,14.3,0x00c000,-37.5,0.00e-0
1665566995,C;S;V;F,,0x00c000,-37.6,0.00e-0
1665566996,C;S;V;F,14.5,0x00c000,-37.4,0.00e-0
1665566997,C;S;V;F,14.3,0x00c000,,0.00e-0
1665566998,C;S;V;F,13.8,0x00c000,-38.2,0.00e-0
1665566999,C;S;V;F,13.7,0x00c000,-37.5,0.00e-0
1665567000,C;S;V;F,14.2,0x00c000,-37.9,0.00e-0
1665567001,C;S;V;F,13.9,0x00c000,-38.0,0.00e-0
1665567002,C;S;V;F,14.1,0x00c000,-37.5,0.00e-0
1665567003,C;S;V;F,13.9,0x00c000,-37.6,0.00e-0
1665567004,C;S;V;F,13.5,0x00c000,-38.1,0.00e-0
1665567005,C;S;V;F,13.5,0x00c000,-38.1,0.00e-0
1665567006,C;S;V;F,13.7,0x00c000,-38.1,0.00e-0
1665567007,C;S;V;F,13.3,0x00c000,-38.6,
1665567008,,13.8,0x00c000,-38.1,1.51e-7
1665567009,C;S;V;F,13.9,0x00c000,-37.8,1.51e-7
1665567010,C;S;V;F,13.9,0x00c000,-38.4,0.00e-0
1665567011,C;S;V;F,,0x00c000,-37.9,0.00e-0
1665567012,C;S;V;F,13.8,0x00c000,-38.8,1.51e-7
1665567013,C;S;V;F,13.1,0x00c000,,3.03e-7
1665567014,C;S;V;F,13.1,0x00c000,-38.4,3.03e-7
1665567015,C;S;V;F,13.8,0x00c000,-38.8,1.51e-7
1665567016,C;S;V;F,12.4,0x00c000,-39.1,1.36e-6
1665567017,C;S;V;F,12.4,0x00c000,-38.9,2.42e-6
1665567018,C;S;V;F,12.8,0x00c000,-38.7,2.42e-6
1665567019,C;S;V;F,13.4,0x00c000,-38.7,1.51e-7
1665567020,C;S;V;F,12.7,0x00c000,-39.1,4.54e-7
1665567021,C;S;V;F,13.5,0x00c000,-38.4,4.54e-7
1665567022,,13.5,0x00c000,-38.9,
1665567023,C;S;V;F,12.7,0x00c000,-39.0,1.51e-7
1665567024,C;S;V;F,13.0,0x00c000,-39.1,1.51e-7
1665567025,C;S;V;F,13.0,0x00c000,-38.7,3.03e-7
1665567026,C;S;V;F,,0x00c000,-39.7,3.03e-7
1665567027,C;S;V;F,12.2,0x00c000,-38.9,2.11e-6
1665567028,C;S;V;F,12.9,0x00c000,,3.17e-6
1665567029,C;S;V;F,12.3,0x00c000,-39.5,1.81e-6
1665567030,C;S;V;F,12.2,0x00c000,-39.6,2.72e-6
1665567031,C;S;V;F,12.7,0x00c000,-38.4,1.96e-6
1665567032,C;S;V;F,13.2,0x00c000,-38.7,1.51e-7
1665567033,C;S;V;F,12.7,0x00c000,-39.2,9.09e-7
1665567034,C;S;V;F,12.6,0x00c000,-38.9,1.05e-6
1665567035,C;S;V;F,13.2,0x00c000,-38.7,
1665567036,,12.5,0x00c000,-39.6,7.57e-7
1665567037,C;S;V;F,12.5,0x00c000,-39.1,2.26e-6
1665567038,C;S;V;F,,0x00c000,-39.2,2.87e-6
1665567039,C;S;V;F,12.0,0x00c000,-40.4,3.32e-6
1665567040,C;S;V;F,10.9,0x00c000,-40.0,1.15e-5
1665567041,C;S;V;F,11.4,0x00c000,,2.91e-5
1665567042,C;S;V;F,11.0,0x00c000,-39.7,2.34e-5
1665567043,C;S;V;F,12.2,0x00c000,-39.3,1.88e-5
1665567044,C;S;V;F,11.4,0x00c000,-39.6,1.04e-5
1665567046,,11.0,0x00c000,-39.7,
1665567047,C;S;V;F,,0x00c000,-38.8,1.90e-5
1665567048,C;S;V;F,12.0,0x00c000,,1.76e-5
1665567049,C;S;V;F,11.7,0x00c000,-39.5,1.15e-5
1665567050,C;S;V;F,11.9,0x00c000,-38.9,1.21e-5
1665567051,C;S;V;F,10.8,0x00c000,-40.1,4.06e-5
1665567052,C;S;V;F,12.1,0x00c000,-38.7,4.24e-5
1665567053,C;S;V;F,12.1,0x00c000,-39.1,5.89e-6
1665567054,C;S;V;F,11.7,0x00c000,-39.0,1.03e-5
1665567055,C;S;V;F,10.7,0x00c000,-39.6,1.94e-5
1665567056,C;S;V;F,11.3,0x00c000,-39.3,4.73e-5
1665567057,C;S;V;F,11.4,0x00c000,-39.2,
1665567058,,11.4,0x00c000,-38.6,2.10e-5
1665567059,C;S;V;F,10.9,0x00c000,-39.4,1.79e-5
1665567060,C;S;V;F,11.5,0x00c000,-39.7,1.51e-5
1665567061,C;S;V;F,11.9,0x00c000,-39.2,2.34e-5
1665567062,C;S;V;F,,0x00c000,-39.0,4.24e-5
1665567063,C;S;V;F,11.6,0x00c000,,2.21e-5
1665567064,C;S;V;F,11.9,0x00c000,-38.8,9.07e-6
1665567065,C;S;V;F,11.6,0x00c000,-38.7,8.77e-6
1665567066,C;S;V;F,12.7,0x00c000,-37.8,4.38e-6
1665567067,C;S;V;F,12.2,0x00c000,-38.8,3.02e-6
1665567068,C;S;V;F,12.3,0x00c000,-38.4,3.78e-6
1665567069,C;S;V;F,12.4,0x00c000,-38.2,2.72e-6
1665567070,C;S;V;F,12.8,0x00c000,-37.9,1.66e-6
1665567071,C;S;V;F,12.1,0x00c000,-38.3,2.72e-6
1665567072,C;S;V;F,12.5,0x00c000,-38.1,
1665567073,,12.8,0x00c000,-38.0,9.09e-7
1665567074,C;S;V;F,12.5,0x00c000,-38.0,1.21e-6
1665567075,C;S;V;F,12.8,0x00c000,-37.5,1.05e-6
1665567076,C;S;V;F,,0x00c000,-38.2,4.99e-6
1665567077,C;S;V;F,12.4,0x00c000,,2.42e-6
1665567078,C;S;V;F,13.4,0x00c000,-37.9,1.51e-6
1665567079,C;S;V;F,13.1,0x00c000,-37.4,3.03e-7
1665567080,C;S;V;F,13.0,0x00c000,-37.9,6.06e-7
1665567081,C;S;V;F,12.4,0x00c000,-38.1,1.96e-6
1665567082,C;S;V;F,13.1,0x00c000,-37.1,1.66e-6
1665567083,C;S;V;F,13.8,0x00c000,-37.1,0.00e-0
1665567084,C;S;V;F,13.9,0x00c000,-37.0,0.00e-0
1665567085,,13.7,0x00c000,-37.3,
1665567086,C;S;V;F,14.6,0x00c000,-36.7,0.00e-0
1665567087,C;S;V;F,,0x00c000,-37.3,0.00e-0
1665567088,C;S;V;F,13.7,0x00c000,-37.5,0.00e-0
1665567089,C;S;V;F,13.6,0x00c000,,0.00e-0
1665567090,C;S;V;F,14.2,0x00c000,-37.1,0.00e-0
1665567091,C;S;V;F,13.9,0x00c000,-37.5,0.00e-0
1665567092,C;S;V;F,13.9,0x00c000,-37.5,0.00e-0
1665567093,C;S;V;F,13.6,0x00c000,-37.8,0.00e-0
1665567094,C;S;V;F,13.8,0x00c000,-36.4,0.00e-0
1665567095,C;S;V;F,14.9,0x00c000,-37.7,0.00e-0
1665567096,C;S;V;F,13.8,0x00c000,-36.2,0.00e-0
1665567097,C;S;V;F,14.4,0x00c000,-37.3,0.00e-0
1665567098,C;S;V;F,14.5,0x00c000,-36.9,0.00e-0
1665567099,C;S;V;F,14.5,0x00c000,-36.4,
1665567100,,14.8,0x00c000,-36.8,0.00e-0
1665567101,C;S;V;F,13.9,0x00c000,-37.6,0.00e-0